Location: Unspecified
(44.4377°N, 88.0525°W)
Time: 02:58:29
(UTC-06:00)

Resurs 1-4 Rocket - Visible Passes

Search period start: 06 March 2015 00:00
Search period end: 16 March 2015 01:00
Orbit: 801 x 814 km, 98.4° (Epoch: 04 March)

Date Brightness Start Highest point End Pass type
(mag) Time Alt. Az. Time Alt. Az. Time Alt. Az.
06 Mar 3.9 02:46:22 10° NE 02:50:17 28° E 02:50:17 28° E visible
06 Mar 2.5 04:25:56 10° N 04:30:53 40° WNW 04:31:23 39° W visible
07 Mar 4.5 02:22:44 10° NE 02:25:41 17° E 02:25:41 17° E visible
07 Mar 2.0 04:01:16 10° N 04:06:31 65° WNW 04:06:47 64° W visible
07 Mar 4.0 05:44:53 10° NW 05:45:29 10° NW 05:45:48 10° WNW visible
08 Mar 2.1 04:36:45 10° NNE 04:42:04 79° ESE 04:42:10 79° ESE visible
08 Mar 3.7 06:18:07 10° NNW 06:21:22 16° WNW 06:23:16 13° W visible
09 Mar 2.8 04:12:25 10° NNE 04:17:33 48° E 04:17:34 48° E visible
09 Mar 3.2 05:52:53 10° N 05:57:09 25° WNW 05:58:40 22° W visible
10 Mar 3.7 03:48:20 10° NE 03:52:54 30° E 03:52:58 30° E visible
10 Mar 2.6 05:27:59 10° N 05:32:53 38° WNW 05:34:04 34° W visible
11 Mar 4.3 03:24:38 10° NE 03:28:08 18° E 03:28:21 18° E visible
11 Mar 2.1 05:03:18 10° N 05:08:32 62° WNW 05:09:27 52° WSW visible
12 Mar 4.9 03:02:21 10° ENE 03:03:15 11° E 03:03:45 11° E visible
12 Mar 2.0 04:38:46 10° NNE 04:44:06 83° ESE 04:44:51 66° S visible
12 Mar 3.7 06:20:16 10° NNW 06:23:21 15° WNW 06:25:57 11° W visible
13 Mar 2.7 04:14:25 10° NNE 04:19:34 51° E 04:20:14 48° SE visible
13 Mar 3.2 05:54:58 10° NNW 05:59:09 24° WNW 06:01:20 18° W visible
14 Mar 3.6 03:50:18 10° NNE 03:54:56 31° E 03:55:38 30° ESE visible
14 Mar 2.7 05:30:02 10° N 05:34:53 37° WNW 05:36:44 28° WSW visible
15 Mar 4.2 03:26:33 10° NE 03:30:11 19° E 03:31:01 19° ESE visible
15 Mar 2.1 05:05:20 10° N 05:10:31 59° WNW 05:12:07 41° SW visible
